User: anonymous   Login
Location: Unspecified
(0.0000°N, 0.0000°E)
Time: 22:46:47
(UTC+02:00)
Language:

Coronas F rocket - Orbit

View from above orbital plane
View from above orbital plane
View from above satellite
View from above satellite

Ground track
Ground track

The orbit data is extracted from the following two-line orbital elements,

1 26874U 01032B   16243.59937000  .00028984  00000-0  12628-3 0  9995
2 26874  82.4589 200.1502 0002816 269.5358  90.5589 15.84583962847411
Epoch (UTC): 30 August 2016 14:23:05
Eccentricity: 0.0002816
inclination: 82.4589°
perigee height: 315 km
apogee height: 319 km
right ascension of ascending node: 200.1502°
argument of perigee: 269.5358°
revolutions per day: 15.84583962
mean anomaly at epoch: 90.5589°
orbit number at epoch: 84741

The dashed part of the orbit path shows where the satellite is in the earth's shadow,  

DLR